Погода в Житомире

Погода в Житомире : погода сейчас, прогноз погоды и архив. Всё, что Вы хотите узнать о погоде в Житомире!

Хотите узнать прогноз погоды в Житомире? Тогда Вам сюда: Погода в Житомире

Поиск расширенной информации на нашем сайте:

Полезная информация:

Другие новости

Новости СМИ2

Главная страница сайта

Новости сайта

03.07.2017

Напоминаем, что на нашем специализированном сайте Метеоцентр.Азия вы можете получить высокодетализированные автоматические прогнозы погоды по пунктам России, СНГ и мира в авиационном формате (включающие направление и скорость ветра, видимость, явления погоды, количество и форму облачности, нижнюю и верхнюю границу облачности).

Рекомендуем:

Погода в Житомире - сегодня

Время (UTC), дата Ветер
(°,м/с) 
Видим.   Явления Облачность Т
(°С)
Тd
(°С)
f(%) Тe
(°С)
Pmin
(гПа)
dP
(гПа)
Po
(мм)
O2
(г/м3)
Тmin Tmax R s Состояние
почвы
12 15.07.19 010 (С) 10 км  слаб. ливневой дождь  10/8 720 м кучево-дожд., средняя 
[Cb cap|Ac trans]
+18 +14.2 78 +27  1009.7  738  276      0.8     
15 15.07.19 тихо ()   10 км  {гроза, ливн. осадки}  8/3 600 м кучево-дожд., средняя, верхняя 
[Cb cap|Ac trans|Ci ing]
+18.2 +15 82 +27  1009.4  -0.3  738  276           
18 15.07.19 тихо ()   10 км  {гроза, ливн. осадки}  6/3 600 м кучево-дожд., средняя, верхняя 
[Cb cap|Ac trans|Ci fib]
+15.8 +13.1 84 +22  1010.3  0.7  739  279    +19     
21 15.07.19 тихо ()   4000 м  дымка  ясно 
+13 +12.1 94 +17  1011  0.4  739  282           
00 16.07.19 тихо ()   4000 м  дымка  3/0 верхняя 
[Ci fib]
+12.2 +11.6 96 +16  1010.8  -0.3  739  283           
03 16.07.19 тихо ()   4000 м  дымка  3/0 верхняя 
[Ci fib]
+11.1 +10.5 96 +13  1010.9  739  284           
06 16.07.19 350 (С) 10 км    5/0 верхняя 
[Ci fib]
+16.6 +12.1 75 +22  1010.5  0.1  739  278  +10.5         
09 16.07.19 350 (С) 10 км    4/4 1000 м 
[Cu med, cong]
+22.4 +12 52 +27  1009.5  -0.5  738  273           
12 16.07.19 300 (СЗ) 10 км    8/6 900 м кучево-дожд., средняя 
[Cb calv|Ac trans]
+22.5 +9.5 44 +23  1008.7  -0.8  738  273           
15 16.07.19 260 (З) 10 км    4/3 1000 м средняя 
[Cu med, cong|Ac trans]
+24.5 +12 46 +29  1007.8  -0.7  737  270           
18 16.07.19 270 (З) 10 км    8/0 верхняя 
[Ci fib]
+20 +11.8 59 +24  1007.8  -0.3  737  274    +24.5       
21 16.07.19 240 (ЮЗ) 10 км    ясно 
+16.8 +11.5 71 +22  1008.1  737  278           
00 17.07.19 320 (СЗ) 10 км    9/0 средняя 
[Ac trans]
+14.9 +10.8 76 +19  1008.2  -0.1  737  280           
03 17.07.19 260 (З) 10 км  {ливн. осадки}  9/3 600 м кучево-дожд., средняя 
[Cb calv|Ac trans]
+14.2 +12 87 +19  1008.8  0.5  737  280           
06 17.07.19 290 (З) 10 км  {ливн. осадки}  5/1 1000 м кучево-дожд., средняя, верхняя 
[Cb calv|Ac cast|Ci fib]
+16.6 +10.7 68 +20  1008.1  -0.4  737  278  +13.4    0.0     
09 17.07.19 250 (З) 10 км    6/6 960 м кучево-дожд. 
[Cb calv]
+19.4 +10.6 57 +23  1007.3  -0.6  737  275           
12 17.07.19 тихо ()   10 км  в посл. час ливневой дождь  9/5 750 м кучево-дожд., средняя 
[Cb calv|Ac trans]
+18.2 +12.1 68 +23  1006.9  -0.5  736  276         
15 17.07.19 тихо ()   10 км  слаб. ливневой дождь{гроза}  9/8 630 м кучево-дожд., средняя 
[Cb cap|Ac trans]
+16.4 +13.2 81 +23  1007.5  0.5  737  277           
18 17.07.19 250 (З) 10 км  {гроза, ливн. осадки}  4/3 600 м кучево-дожд., средняя 
[Cb cap|Ac trans]
+15 +12.5 85 +21  1008.1  0.4  737  279    +21.7     
21 17.07.19 300 (СЗ) 4000 м  дымка  ясно 
+12.5 +11.2 92 +17  1009.3  738  282           
00 18.07.19 300 (СЗ) 4000 м  дымка  ясно 
+11.4 +10.4 94 +14  1009.3  -0.1  737  283           
03 18.07.19 290 (З) 4000 м  дымка  ясно 
+10.4 +9.2 92 +12  1009.7  0.3  738  285           
06 18.07.19 290 (З) 4000 м  дымка  9/9 400 м верхняя 
[St|Cc]
+13.2 +11.5 89 +18  1010.3  0.8  738  282  +10.2         
09 18.07.19 280 (З) 10 км    9/9 600 м кучево-дожд. 
[Cb calv]
+17.4 +11 66 +21  1010.5  0.6  739  278           
12 18.07.19 270 (З) 10 км  в посл. час ливневой дождь  8/5 720 м кучево-дожд., средняя 
[Cb calv|Ac trans]
+18.4 +11.1 62 +22  1010.7  0.3  739  277      0.0     
Время (UTC), дата Ветер
(°,м/с) 
Видим.   Явления Облачность Т
(°С)
Тd
(°С)
f(%) Тe
(°С)
Pmin
(гПа)
dP
(гПа)
Po
(мм)
O2
(г/м3)
Тmin Tmax R s Состояние
почвы

Для получения пояснительной информации подведите курсор к названию столбца.

ПОГОДА в Житомире - архив

Всё, что Вы хотите узнать о погоде в Житомире - удобно и подробно!

Выберите нужную дату (начиная с 1 января 2018* года) и нажмите кнопку "Найти".
Будут отображены архивные сводки погоды по пункту Житомир, начиная с указанной даты.


Отображать данные в формате CSV (для использования в таблицах Excel)


Внимание! Наш архив погоды предназначен исключительно для личного некоммерческого использования в познавательных целях. Если Вам необходимы официальные справки о состоянии погоды (для производственных, юридических, коммерческих и т.п. целей), обращайтесь в органы Росгидромета.

*Примечание: данная дата относится к архиву по метеостанциям СССР (Россия, СНГ, Балтия).
Архив по метеостанциям Зарубежной Европы и Азии (кроме Китая) хранится 10 дней, по другим регионам земного шара (Китай, Африка, Америка, Австралия, Океания) - 1 день.

Житомир - район местоположения метеостанции


Название, широта, долгота, высота метеостанции:
Житомир 50.2°ш. 28.7°д. 224 м над ур. моря [Украина]

Дополнительная информация

В oтличие oт бoльшинства пoгoдных сайтoв мы публикуем пoдрoбную метеoинфoрмацию в детальнoм прoфессиoнальнoм фoрмате.

Характеристики температуры и влажнoсти вoздуха измеряются на высoте 2 м в тени вдали oт зданий и деревьев.
Скoрoсть ветра измеряется на высoте 10 м (на урoвне рoста челoвека скoрoсть ветра ниже в 1.5-2 раза). Если метеoстанция нахoдится в гoрoде или в лесу, тo скoрoсть ветра занижена на 2-4 м/с пo сравнению с oткрытым местoм. Скoрoсть ветра над акватoриями крупных рек и oзёр, а также на вершинах хoлмoв на 2-5 м/с выше, чем в oбычных услoвиях.
Атмoсфернoе давление в разных тoчках местнoсти мoжет значительнo oтличаться oт давления на метеoстанции, в зависимoсти oт услoвий рельефа (при пoдъёме на 10 м давление пoнижается примернo на 1 мм рт.ст.).